Regional Weather Roundup
Issued by NWS Nashville, TN

Current Version | Previous Version | Text Only | Print | Product List | Glossary On
Versions: 1 2 3 4 5 6 7 8 9 10 11 12 13 14 15 16 17 18 19 20 21 22 23 24 25 26 27 28 29 30 31 32 33 34 35 36 37 38 39 40 41 42 43 44 45 46 47 48 49 50
000
ASUS44 KOHX 281410
RWROHX
MIDDLE TENNESSEE HOURLY WEATHER ROUNDUP
NATIONAL WEATHER SERVICE NASHVILLE TN
900 AM CDT TUE JUL 28 2015

NOTE: "FAIR" INDICATES FEW OR NO CLOUDS BELOW 12,000 FEET WITH
NO SIGNIFICANT WEATHER AND/OR OBSTRUCTIONS TO VISIBILITY.

* THESE REPORTS ARE NOT UNDER NWS QUALITY CONTROL AND MAY NOT
  REPORT WEATHER SUCH AS PRECIPITATION AND FOG.


TNZ005>011-023>034-057-059-062>066-078-080-281500
...NORTHERN MIDDLE TENNESSEE...

CITY           SKY/WX    TMP DP  RH WIND       PRES   REMARKS
CLARKSVILLE    SUNNY     85  75  72 VRB3      30.00R HX  93
CROSSVILLE     SUNNY     82  72  71 W5        30.10R
GALLATIN         N/A     82  32  16 CALM      30.02S
DICKSON        SUNNY     84  75  74 W5        30.02R HX  92
NASHVILLE      MOSUNNY   86  77  74 VRB5      30.02R HX  97
PORTLAND       SUNNY    N/A N/A N/A S5        30.01R
ROCKWOOD       SUNNY     79  73  81 S3        30.09R
SMYRNA         MOSUNNY   86  77  74 VRB3      30.03R HX  97
SPARTA         SUNNY     84  77  79 S3        30.04S HX  94
$$
TNZ056-058-060-061-075>077-079-093>097-281500
...SOUTHERN MIDDLE TENNESSEE...

CITY           SKY/WX    TMP DP  RH WIND       PRES   REMARKS
COLUMBIA       SUNNY     90  79  70 CALM      30.01S HX 105
LEWISBURG      SUNNY     87  75  67 S3        30.02S HX  96
MCMINNVILLE    SUNNY     82  79  89 CALM      30.05S HX  93
SHELBYVILLE    SUNNY     88  79  74 CALM      30.04S HX 102
TULLAHOMA      SUNNY     86  73  66 CALM      30.06S HX  93
WINCHESTER     SUNNY     84  73  70 CALM      30.05R HX  91
$$


...KEY TO REMARKS...
VSB - VISIBILITY IN MILES
WCI - WIND CHILL INDEX
HX  - HEAT INDEX



USA.gov is the U.S. government's official web portal to all federal, state and local government web resources and services.